Pagina principală
METAR-TAF:

METAR-TAF

Aeroporturi :

NWS Office

Pohnpei, Micronezia

Latitudine: 06-58N, longitudine: 158-13E, elevație: 39 m

Observații meteo curente

Raportul a fost făcut în urmă cu 24 de minute, la 11:53 UTC
Vânt 4 kt de la Sud-est
Temperatură 25°C
Umiditate 94%
Presiune 1013 hPa
Vizibilitate: 24.1 km
Nori împrăștiați la o înălțime de 1800 picior
Nori fragmentați la o înălțime de 13000 picior
Total acoperit la o înălțime de 30000 picior

METAR: PTTP 291153Z 14004KT 15SM SCT018 BKN130 OVC300 25/24 A2990 RMK SLP125 8/171 T02450238 10290 20245 52017

Ora: 23:17 (12:17 UTC)


TAF: lipsă

Observații și prognoze meteo pentru peste 4.000 de aeroporturi (rapoarte METAR și TAF).

Stațiile disponibile sunt reprezentate pe hartă prin puncte galbene și roșii.

Țineți indicatorul mouse-ului pe punctul dorit pentru a vedea denumirea stației.

Apoi, faceți clic pentru a vedea observațiile și prognozele meteorologice.

Pentru a schimba harta: Pentru mărire, faceți clic pe butoanele verzi cu cruce neagră; pentru micșorare, pe butonul verde cu o liniuță; pentru hărți învecinate, pe săgețile verzi.


METAR-TAF: